Terminal Aerodrome Forecast
Issued by NWS King Salmon, AK

Home | Current Version | Previous Version | Text Only | Print | Product List | Glossary On
Versions: 1 2 3 4 5 6 7 8 9 10 11 12 13 14 15 16 17 18 19 20
000
FTAK31 PANC 230527
TAFAKN
TAF
PAKN 230527Z 2306/2406 31010KT P6SM VCSH SCT025 BKN050
      TEMPO 2306/2307 4SM -RA BR BKN025
     FM232100 27015G22KT P6SM SCT025 BKN040
     FM240400 25013G22KT 5SM -RA BKN025 OVC050=

USA.gov is the U.S. government's official web portal to all federal, state and local government web resources and services.